Weather in Temp

Russia / Saratov Oblast     52°16′00″N   43°53′14″E
temp.,
°C
wind,
m/s
gust,
m/s
humid.,
%
clouds,
%
prec.,
mm/h
press.,
hPa
HPBL,
m
12 april, mon
mon1201:00+5ne4796100 0.0 1028138
04:00+5ne4896100 0.0 1029146
07:00+6ene51193100 0.0 1029193
10:00+12e687485 0.0 1029277
13:00+19ese5750100 0.0 1028714
16:00+20ese7936100 0.0 10281193
19:00+17e485494 0.0 1029145
22:00+12ese4117168 0.0 1030189
13 april, tue
tue1301:00+10ese4126823 0.0 1030197
04:00+8ese4116999 0.0 1031172
07:00+7ese5127184 0.0 1031180
10:00+14se7114774 0.0 1031443
13:00+18se78335 0.0 10301053
16:00+19se68296 0.0 10291428
19:00+16se4742100 0.0 1028165
22:00+12ese4856100 0.0 1029106
14 april, wed
wed1401:00+10ese4116529 0.0 1028175
04:00+8ese4116772 0.0 1027155
07:00+7ese4106923 0.0 1027160
10:00+13ese610465 0.0 1026444
13:00+17se68345 0.0 10241056
16:00+18se67300 0.0 10231406
19:00+16se47420 0.0 1022150
22:00+11ese46550 0.0 102275
15 april, thu
thu1501:00+9ese48660 0.0 1021114
04:00+8se46720 0.0 102190
07:00+8ese47780 0.0 1021108
10:00+14ese46570 0.0 1020380
13:00+18se44420 0.0 10181312
16:00+20se34354 0.0 10171790
19:00+17se33471 0.0 101647
22:00+13ese33605 0.0 101635
16 april, fri
fri1601:00+11ese466915 0.0 101681
04:00+10e4873100 0.0 1015116
07:00+9ese35775 0.0 101472
10:00+16se345291 0.0 1014375
13:00+20sse44375 0.0 10131410
16:00+20s4541100 0.0 10111465
19:00+17sw2354100 0.0 101045
22:00+11ne71184100 2.4 1012366